GW4746 Weather Reports


Display with metric or nautical units.
time (UTC)temp
F
wind
direction
speed
MPH
gust
MPH
rain 1hr
in
rain 24hr
in
rain mn
in
humidity
%
barometer
mb
20260906220020 96 77 0.0 4.0 0.00 0.00 0.00 37 1012.2
20260906214516 97 117 1.0 5.0 0.00 0.00 0.00 39 1012.4
20260906213035 99 214 0.0 5.0 0.00 0.00 0.00 34 1012.5
20260906211540 98 122 3.0 8.0 0.00 0.00 0.00 35 1012.9
20260906210053 100 86 2.0 4.0 0.00 0.00 0.00 33 1013.0
20260906204514 100 108 2.0 5.0 0.00 0.00 0.00 32 1013.3
20260906203016 99 146 1.0 6.0 0.00 0.00 0.00 34 1013.3
20260906201537 98 99 1.0 5.0 0.00 0.00 0.00 36 1013.5
20260906200025 100 77 2.0 3.0 0.00 0.00 0.00 33 1013.5
20260906194533 98 105 1.0 4.0 0.00 0.00 0.00 35 1013.8
20260906193031 99 116 4.0 7.0 0.00 0.00 0.00 34 1014.1
20260906191548 98 90 1.0 5.0 0.00 0.00 0.00 35 1014.3
20260906190027 98 94 1.0 4.0 0.00 0.00 0.00 36 1014.4
20260906184534 97 131 1.0 6.0 0.00 0.00 0.00 37 1014.9
20260906183036 97 77 2.0 7.0 0.00 0.00 0.00 38 1014.9
20260906181538 98 91 2.0 5.0 0.00 0.00 0.00 37 1015.1
20260906180052 97 63 1.0 5.0 0.00 0.00 0.00 38 1015.3
20260906174548 97 23 1.0 3.0 0.00 0.00 0.00 39 1015.8
20260906173036 95 45 2.0 5.0 0.00 0.00 0.00 40 1016.0
20260906171533 95 100 1.0 4.0 0.00 0.00 0.00 42 1016.2
20260906170032 94 89 3.0 7.0 0.00 0.00 0.00 42 1016.5
20260906164523 95 126 1.0 3.0 0.00 0.00 0.00 40 1016.4
20260906163027 95 141 0.0 2.0 0.00 0.00 0.00 42 1016.4
20260906161510 93 110 1.0 3.0 0.00 0.00 0.00 44 1016.3
20260906160033 93 22 0.0 3.0 0.00 0.00 0.00 45 1016.4
20260906154516 91 304 0.0 2.0 0.00 0.00 0.00 49 1016.3
20260906153034 90 340 1.0 3.0 0.00 0.00 0.00 50 1016.2
20260906151535 89 332 1.0 3.0 0.00 0.00 0.00 52 1016.3
20260906150018 87 300 1.0 4.0 0.00 0.00 0.00 54 1016.2
20260906144541 88 263 0.0 1.0 0.00 0.00 0.00 53 1016.4
20260906143042 86 94 0.0 1.0 0.00 0.00 0.00 55 1016.2
20260906141523 85 148 0.0 1.0 0.00 0.00 0.00 56 1016.3
20260906140036 83 259 0.0 0.0 0.00 0.00 0.00 58 1016.3
20260906134511 82 176 0.0 0.0 0.00 0.00 0.00 60 1016.2
20260906133023 78 214 0.0 0.0 0.00 0.00 0.00 65 1016.1
20260906131532 77 171 0.0 0.0 0.00 0.00 0.00 67 1015.9
20260906130026 75 177 0.0 0.0 0.00 0.00 0.00 70 1015.8
20260906124527 74 177 0.0 0.0 0.00 0.00 0.00 71 1015.7
20260906123048 74 177 0.0 0.0 0.00 0.00 0.00 71 1015.5
20260906121541 74 177 0.0 0.0 0.00 0.00 0.00 70 1015.2
20260906120031 74 177 0.0 0.0 0.00 0.00 0.00 69 1015.0
20260906114530 75 177 0.0 0.0 0.00 0.00 0.00 68 1015.0
20260906113034 75 177 0.0 0.0 0.00 0.00 0.00 68 1014.8
20260906111513 76 177 0.0 0.0 0.00 0.00 0.00 68 1014.7
20260906110016 76 167 0.0 0.0 0.00 0.00 0.00 68 1014.6
20260906104521 76 167 0.0 0.0 0.00 0.00 0.00 68 1014.6
20260906103035 76 167 0.0 0.0 0.00 0.00 0.00 67 1014.5
20260906101533 76 167 0.0 0.0 0.00 0.00 0.00 66 1014.3
20260906100032 77 167 0.0 0.0 0.00 0.00 0.00 65 1014.4
20260906094520 78 167 0.0 0.0 0.00 0.00 0.00 63 1014.3
20260906093036 78 167 0.0 0.0 0.00 0.00 0.00 62 1014.2
20260906091530 79 167 0.0 0.0 0.00 0.00 0.00 62 1014.0
20260906090050 79 154 0.0 0.0 0.00 0.00 0.00 61 1014.1
20260906084538 80 154 0.0 0.0 0.00 0.00 0.00 61 1014.1
20260906083026 80 177 0.0 1.0 0.00 0.00 0.00 60 1014.1
20260906081526 81 242 0.0 2.0 0.00 0.00 0.00 59 1014.0
20260906080031 81 172 1.0 3.0 0.00 0.00 0.00 58 1013.9
20260906074532 82 167 0.0 3.0 0.00 0.00 0.00 57 1014.0
20260906073016 82 160 0.0 4.0 0.00 0.00 0.00 55 1014.3
20260906071524 83 167 0.0 2.0 0.00 0.00 0.00 54 1014.4
20260906070006 83 139 1.0 4.0 0.00 0.00 0.00 52 1014.5
20260906064508 83 168 0.0 3.0 0.00 0.00 0.00 50 1014.6
20260906063043 83 165 0.0 2.0 0.00 0.00 0.00 51 1014.6
20260906061534 82 96 0.0 1.0 0.00 0.00 0.00 53 1014.7
20260906060034 82 96 0.0 1.0 0.00 0.00 0.00 53 1015.0
20260906054506 82 64 0.0 1.0 0.00 0.00 0.00 53 1014.8
20260906053030 83 64 0.0 1.0 0.00 0.00 0.00 51 1014.6
20260906051550 84 82 0.0 2.0 0.00 0.00 0.00 49 1014.8
20260906050023 84 105 0.0 2.0 0.00 0.00 0.00 48 1014.6
20260906044526 85 155 0.0 1.0 0.00 0.00 0.00 48 1014.7
20260906043005 85 82 1.0 3.0 0.00 0.00 0.00 48 1014.7
20260906041513 86 158 0.0 6.0 0.00 0.00 0.00 47 1014.7
20260906040037 86 134 1.0 4.0 0.00 0.00 0.00 47 1014.6
20260906034529 87 162 1.0 3.0 0.00 0.00 0.00 45 1014.4
20260906033028 87 129 1.0 4.0 0.00 0.00 0.00 44 1014.3
20260906031507 88 113 1.0 4.0 0.00 0.00 0.00 43 1014.0
20260906030034 88 75 1.0 7.0 0.00 0.00 0.00 43 1013.9
20260906024521 89 88 2.0 4.0 0.00 0.00 0.00 42 1013.6
20260906023033 90 96 3.0 9.0 0.00 0.00 0.00 41 1013.4
20260906021535 90 96 2.0 6.0 0.00 0.00 0.00 40 1013.2
20260906020029 91 129 2.0 5.0 0.00 0.00 0.00 39 1013.1
20260906014525 91 124 1.0 7.0 0.00 0.00 0.00 38 1012.9
20260906013003 92 100 2.0 6.0 0.00 0.00 0.00 37 1012.6
20260906011504 93 114 2.0 7.0 0.00 0.00 0.00 37 1012.3
20260906010011 93 105 2.0 5.0 0.00 0.00 0.00 37 1012.1
20260906004513 94 101 3.0 10.0 0.00 0.00 0.00 36 1012.0
20260906003011 95 143 3.0 8.0 0.00 0.00 0.00 35 1012.0
20260906001510 95 131 3.0 12.0 0.00 0.00 0.00 35 1011.9
20260906000006 96 148 2.0 4.0 0.00 0.00 0.00 35 1011.8
20260905234511 97 131 1.0 3.0 0.00 0.00 0.00 36 1011.7
20260905233014 97 94 2.0 6.0 0.00 0.00 0.00 35 1011.6
20260905231522 98 85 2.0 6.0 0.00 0.00 0.00 34 1011.4
20260905230004 99 117 2.0 6.0 0.00 0.00 0.00 33 1011.5
20260905224515 99 105 1.0 10.0 0.00 0.00 0.00 32 1011.6
20260905223008 99 164 0.0 4.0 0.00 0.00 0.00 33 1011.6
20260905221518 98 68 2.0 5.0 0.00 0.00 0.00 33 1011.7